DW1384 Weather Reports


time (UTC)temp
C
wind
direction
speed
KPH
gust
KPH
rain 1hr
cm
rain 24hr
cm
rain mn
cm
humidity
%
barometer
mb
20260510073554 13 172 0.0 0.0 0.00 0.00 0.00 82 1013.1
20260510073046 13 155 0.0 0.0 0.00 0.00 0.00 83 1013.1
20260510072540 12 159 0.0 0.0 0.00 0.00 0.00 83 1013.1
20260510072034 12 166 0.0 0.0 0.00 0.00 0.00 84 1013.2
20260510071530 12 135 0.0 0.0 0.00 0.00 0.00 84 1013.2
20260510071023 11 117 0.0 0.0 0.00 0.00 0.00 85 1013.2
20260510070516 11 126 0.0 0.0 0.00 0.00 0.00 86 1013.2
20260510070248 11 117 0.0 0.0 0.00 0.00 0.00 86 1013.3
20260510065514 10 110 0.0 0.0 0.00 0.00 0.00 87 1013.3
20260510065238 10 119 0.0 0.0 0.00 0.00 0.00 87 1013.3
20260510064513 10 125 0.0 0.0 0.00 0.00 0.00 88 1013.3
20260510064014 10 130 0.0 0.0 0.00 0.00 0.00 88 1013.3
20260510063511 9 122 0.0 0.0 0.00 0.00 0.00 88 1013.3
20260510063011 8 116 0.0 0.0 0.00 0.00 0.00 89 1013.3
20260510062508 8 119 0.0 0.0 0.00 0.00 0.00 89 1013.3
20260510062018 8 118 0.0 0.0 0.00 0.00 0.00 89 1013.4
20260510061725 8 134 0.0 0.0 0.00 0.00 0.00 90 1013.4
20260510061002 7 123 0.0 0.0 0.00 0.00 0.00 90 1013.4
20260510060504 7 118 0.0 0.0 0.00 0.00 0.00 90 1013.4
20260510060003 7 115 0.0 0.0 0.00 0.00 0.00 90 1013.4
20260510055500 7 161 0.0 0.0 0.00 0.00 0.00 90 1013.4
20260510055000 7 163 0.0 0.0 0.00 0.00 0.00 90 1013.5
20260510054500 7 158 0.0 0.0 0.00 0.00 0.00 90 1013.5
20260510053959 6 151 0.0 0.0 0.00 0.00 0.00 90 1013.5
20260510053459 6 116 0.0 0.0 0.00 0.00 0.00 90 1013.5
20260510052952 6 112 0.0 0.0 0.00 0.00 0.00 90 1013.5
20260510052453 6 112 0.0 0.0 0.00 0.00 0.00 90 1013.6
20260510051953 6 111 0.0 0.0 0.00 0.00 0.00 90 1013.7
20260510051451 6 110 0.0 0.0 0.00 0.00 0.00 90 1013.7
20260510050948 6 110 0.0 0.0 0.00 0.00 0.00 90 1013.7
20260510050448 6 109 0.0 0.0 0.00 0.00 0.00 90 1013.7
20260510045949 5 109 0.0 0.0 0.00 0.00 0.00 90 1013.7
20260510045449 5 109 0.0 0.0 0.00 0.00 0.00 90 1013.7
20260510044946 5 109 0.0 0.0 0.00 0.00 0.00 90 1013.7
20260510044446 5 109 0.0 0.0 0.00 0.00 0.00 90 1013.8
20260510043945 5 124 0.0 0.0 0.00 0.00 0.00 90 1013.8
20260510043443 5 124 0.0 0.0 0.00 0.00 0.00 90 1013.8
20260510042955 5 125 0.0 0.0 0.00 0.00 0.00 90 1013.8
20260510042438 5 125 0.0 0.0 0.00 0.00 0.00 90 1013.8
20260510041925 -17 125 0.0 0.0 0.00 0.00 0.00 1013.9
20260510041644 -17 0.0 0.0 0.00 0.00 0.00 1013.9
20260510040918 -17 0.0 0.0 0.00 0.00 0.00 1013.9
20260510040325 -17 0.0 0.0 0.00 0.00 0.00 1014.0
20260510035821 -17 0.0 0.0 0.00 0.00 0.00 1014.1
20260510035455 -17 0.0 0.0 0.00 0.00 0.00 1014.0
20260510034721 -17 0.0 0.0 0.00 0.00 0.00 1014.1
20260510034130 -17 0.0 0.0 0.00 0.00 0.00 1014.3
20260510033532 -17 0.0 0.0 0.00 0.00 0.00 1014.3
20260510033025 -17 0.0 0.0 0.00 0.00 0.00 1014.3
20260510032525 -17 0.0 0.0 0.00 0.00 0.00 1014.4
20260510032021 -17 0.0 0.0 0.00 0.00 0.00 1014.4
20260510032011 -17 0.0 0.0 0.00 0.00 0.00 1014.4
20260510031020 -17 0.0 0.0 0.00 0.00 0.00 1014.5
20260510030427 -17 0.0 0.0 0.00 0.00 0.00 1014.4
20260510025925 -17 128 0.0 0.0 0.00 0.00 0.00 1014.4
20260510025426 -17 128 0.0 0.0 0.00 0.00 0.00 1014.5
20260510024926 5 128 0.0 0.0 0.00 0.00 0.00 89 1014.8
20260510024402 5 128 0.0 0.0 0.00 0.00 0.00 89 1014.6
20260510023902 5 122 0.0 0.0 0.00 0.00 0.00 89 1014.6
20260510023403 5 120 0.0 0.0 0.00 0.00 0.00 89 1014.8
20260510022901 5 122 0.0 0.0 0.00 0.00 0.00 89 1014.8
20260510022401 5 122 0.0 0.0 0.00 0.00 0.00 89 1014.7
20260510021858 5 122 0.0 0.0 0.00 0.00 0.00 89 1014.8
20260510021356 5 122 0.0 0.0 0.00 0.00 0.00 89 1014.8
20260510020857 5 122 0.0 0.0 0.00 0.00 0.00 89 1014.8
20260510020850 5 122 0.0 0.0 0.00 0.00 0.00 89 1014.8
20260510015859 5 122 0.0 0.0 0.00 0.00 0.00 89 1014.9
20260510015626 5 122 0.0 0.0 0.00 0.00 0.00 89 1014.8
20260510014856 5 122 0.0 0.0 0.00 0.00 0.00 89 1014.8
20260510014357 5 122 0.0 0.0 0.00 0.00 0.00 89 1014.7
20260510013857 5 122 0.0 0.0 0.00 0.00 0.00 89 1014.8
20260510013354 5 122 0.0 0.0 0.00 0.00 0.00 89 1014.8
20260510013336 6 122 0.0 0.0 0.00 0.00 0.00 89 1014.8
20260510012352 6 122 0.0 0.0 0.00 0.00 0.00 89 1014.8
20260510011854 6 122 0.0 0.0 0.00 0.00 0.00 89 1014.7
20260510011408 6 122 0.0 0.0 0.00 0.00 0.00 89 1014.8
20260510010852 6 122 0.0 0.0 0.00 0.00 0.00 89 1014.8
20260510010354 6 122 0.0 0.0 0.00 0.00 0.00 88 1014.7
20260510005855 6 122 0.0 0.0 0.00 0.00 0.00 89 1014.8
20260510005352 6 122 0.0 0.0 0.00 0.00 0.00 89 1014.7
20260510004850 6 122 0.0 0.0 0.00 0.00 0.00 88 1014.7
20260510004348 6 121 0.0 0.0 0.00 0.00 0.00 88 1014.8
20260510003848 6 118 0.0 0.0 0.00 0.00 0.00 88 1014.8
20260510003349 6 118 0.0 0.0 0.00 0.00 0.00 88 1014.9
20260510002846 6 118 0.0 0.0 0.00 0.00 0.00 88 1014.9
20260510002346 6 121 0.0 0.0 0.00 0.00 0.00 88 1015.0
20260510002110 6 116 0.0 0.0 0.00 0.00 0.00 88 1015.0
20260510001346 6 115 0.0 0.0 0.00 0.00 0.00 88 1015.1
20260510001107 6 115 0.0 0.0 0.00 0.00 0.00 88 1015.3
20260510000349 6 115 0.0 0.0 0.00 0.00 0.00 88 1015.3
20260509235846 7 115 0.0 0.0 0.00 0.00 0.00 88 1015.4
20260509235608 7 115 0.0 0.0 0.00 0.00 0.00 88 1015.3
20260509234847 7 115 0.0 0.0 0.00 0.00 0.00 88 1015.4
20260509234346 7 115 0.0 0.0 0.00 0.00 0.00 88 1015.4
20260509233846 7 115 0.0 0.0 0.00 0.00 0.00 88 1015.5
20260509233348 7 115 0.0 0.0 0.00 0.00 0.00 87 1015.5
20260509232848 7 115 0.0 0.0 0.00 0.00 0.00 87 1015.6
20260509232610 7 115 0.0 0.0 0.00 0.00 0.00 87 1015.6
20260509231834 7 115 0.0 0.0 0.00 0.00 0.00 87 1015.6
20260509231336 7 114 0.0 0.0 0.00 0.00 0.00 87 1015.6
20260509230835 7 113 0.0 0.0 0.00 0.00 0.00 87 1015.7
20260509230334 7 112 0.0 0.0 0.00 0.00 0.00 87 1015.7
20260509225834 7 111 0.0 0.0 0.00 0.00 0.00 87 1015.7
20260509225557 8 111 0.0 0.0 0.00 0.00 0.00 87 1015.7
20260509224834 8 111 0.0 0.0 0.00 0.00 0.00 87 1015.7
20260509224600 8 111 0.0 0.0 0.00 0.00 0.00 87 1015.8
20260509223834 8 111 0.0 0.0 0.00 0.00 0.00 86 1015.9
20260509223334 8 111 0.0 0.0 0.00 0.00 0.00 86 1015.9
20260509222832 8 111 0.0 0.0 0.00 0.00 0.00 86 1015.9
20260509222334 8 111 0.0 0.0 0.00 0.00 0.00 86 1015.9
20260509221832 8 111 0.0 0.0 0.00 0.00 0.00 86 1015.8
20260509221332 8 111 0.0 0.0 0.00 0.00 0.00 86 1015.8
20260509220832 8 118 0.0 0.0 0.00 0.00 0.00 86 1015.8
20260509220334 8 118 0.0 0.0 0.00 0.00 0.00 85 1015.9
20260509220044 9 118 0.0 0.0 0.00 0.00 0.00 86 1015.9
20260509215323 9 118 0.0 0.0 0.00 0.00 0.00 85 1015.7
20260509214819 9 118 0.0 0.0 0.00 0.00 0.00 85 1015.5
20260509214313 9 118 0.0 0.0 0.00 0.00 0.00 85 1015.5
20260509213806 9 106 0.0 0.0 0.00 0.00 0.00 85 1015.7
20260509213301 10 97 0.0 0.0 0.00 0.00 0.00 85 1015.8
20260509213238 10 96 0.0 0.0 0.00 0.00 0.00 85 1015.7
20260509212517 10 95 0.0 0.0 0.00 0.00 0.00 84 1015.7
20260509211741 10 95 0.0 0.0 0.00 0.00 0.00 84 1015.7
20260509211241 10 95 0.0 0.0 0.00 0.00 0.00 84 1015.7
20260509210740 10 91 0.0 0.0 0.00 0.00 0.00 84 1015.6
20260509210240 10 89 0.0 0.0 0.00 0.00 0.00 84 1015.7
20260509205737 10 89 0.0 0.0 0.00 0.00 0.00 83 1015.7
20260509205237 10 89 0.0 0.0 0.00 0.00 0.00 83 1015.7
20260509204738 11 89 0.0 0.0 0.00 0.00 0.00 83 1015.7
20260509204500 11 89 0.0 0.0 0.00 0.00 0.00 82 1015.7
20260509203734 11 88 0.0 0.0 0.00 0.00 0.00 82 1015.7
20260509203233 11 88 0.0 0.0 0.00 0.00 0.00 81 1015.7
20260509202731 12 88 0.0 0.0 0.00 0.00 0.00 81 1015.6
20260509202231 12 88 0.0 0.0 0.00 0.00 0.00 81 1015.6
20260509201732 12 88 0.0 0.0 0.00 0.00 0.00 81 1015.7
20260509201233 12 103 0.0 0.0 0.00 0.00 0.00 80 1015.8
20260509200953 12 104 0.0 0.0 0.00 0.00 0.00 80 1015.7
20260509200231 12 113 0.0 0.0 0.00 0.00 0.00 79 1015.7
20260509195727 12 113 0.0 0.0 0.00 0.00 0.00 78 1015.7
20260509195710 12 113 0.0 0.0 0.00 0.00 0.00 77 1015.7
20260509194726 13 81 0.0 0.0 0.00 0.00 0.00 76 1015.6
20260509194227 13 81 0.0 0.0 0.00 0.00 0.00 76 1015.5
20260509193726 13 95 0.0 0.0 0.00 0.00 0.00 75 1015.4
20260509193226 13 95 0.0 0.0 0.00 0.00 0.00 74 1015.4
20260509192726 14 97 0.0 0.0 0.00 0.00 0.00 73 1015.5
20260509192225 14 97 0.0 0.0 0.00 0.00 0.00 73 1015.4
20260509191727 14 97 0.0 0.0 0.00 0.00 0.00 72 1015.5
20260509191703 15 72 0.0 0.0 0.00 0.00 0.00 69 1015.4
20260509190953 16 68 0.0 0.0 0.00 0.00 0.00 67 1015.3
20260509190227 16 11 0.0 0.0 0.00 0.00 0.00 65 1015.0
20260509185722 17 11 0.0 0.0 0.00 0.00 0.00 63 1015.0
20260509185221 17 13 0.0 0.0 0.00 0.00 0.00 62 1014.9
20260509184721 17 275 0.0 0.0 0.00 0.00 0.00 62 1014.9
20260509184222 17 353 0.0 0.0 0.00 0.00 0.00 61 1014.9
20260509183722 17 321 0.0 0.0 0.00 0.00 0.00 59 1014.9
20260509183222 18 317 0.0 0.0 0.00 0.00 0.00 57 1014.8
20260509182723 18 22 0.0 0.0 0.00 0.00 0.00 56 1014.7
20260509182221 18 10 0.0 0.0 0.00 0.00 0.00 55 1014.8
20260509181723 18 10 0.0 0.0 0.00 0.00 0.00 55 1014.6
20260509181221 18 343 0.0 0.0 0.00 0.00 0.00 54 1014.6
20260509180735 18 287 0.0 0.0 0.00 0.00 0.00 52 1014.9
20260509180224 18 242 0.0 0.0 0.00 0.00 0.00 49 1014.8
20260509175721 18 210 0.0 0.0 0.00 0.00 0.00 48 1014.8
20260509175221 18 210 0.0 0.0 0.00 0.00 0.00 48 1014.7
20260509174721 19 210 0.0 0.0 0.00 0.00 0.00 52 1014.6
20260509174221 19 210 0.0 0.0 0.00 0.00 0.00 51 1014.6
20260509173721 19 210 0.0 0.0 0.00 0.00 0.00 46 1014.6
20260509173654 18 210 0.0 0.0 0.00 0.00 0.00 48 1014.6
20260509172722 18 199 0.0 0.0 0.00 0.00 0.00 48 1014.7
20260509172222 18 127 0.0 0.0 0.00 0.00 0.00 50 1014.8
20260509171722 18 127 0.0 0.0 0.00 0.00 0.00 51 1014.8
20260509171222 19 127 0.0 0.0 0.00 0.00 0.00 49 1014.8
20260509170941 19 127 0.0 0.0 0.00 0.00 0.00 47 1014.6
20260509170221 19 127 0.0 0.0 0.00 0.00 0.00 46 1014.7
20260509165721 19 127 0.0 0.0 0.00 0.00 0.00 46 1014.6
20260509165220 19 127 0.0 0.0 0.00 0.00 0.00 46 1014.6
20260509164720 19 127 0.0 0.0 0.00 0.00 0.00 44 1014.7
20260509164215 19 123 0.0 0.0 0.00 0.00 0.00 43 1014.6
20260509163715 19 164 0.0 0.0 0.00 0.00 0.00 44 1014.8
20260509163216 19 143 0.0 0.0 0.00 0.00 0.00 44 1014.8
20260509162717 20 178 0.0 0.0 0.00 0.00 0.00 43 1014.9
20260509162214 20 188 0.0 0.0 0.00 0.00 0.00 42 1015.0
20260509161713 20 158 0.0 0.0 0.00 0.00 0.00 43 1014.9
20260509161434 19 158 0.0 0.0 0.00 0.00 0.00 44 1014.9
20260509160935 19 161 0.0 0.0 0.00 0.00 0.00 44 1015.0
20260509160214 19 175 0.0 0.0 0.00 0.00 0.00 44 1015.0
20260509155713 19 138 0.0 0.0 0.00 0.00 0.00 44 1015.0
20260509155213 19 161 0.0 0.0 0.00 0.00 0.00 45 1015.1
20260509154713 19 191 0.0 0.0 0.00 0.00 0.00 43 1015.2
20260509154213 20 138 0.0 0.0 0.00 0.00 0.00 43 1015.2
20260509154159 19 155 0.0 0.0 0.00 0.00 0.00 43 1015.2
20260509153213 19 160 0.0 0.0 0.00 0.00 0.00 43 1015.3
20260509152715 19 186 0.0 0.0 0.00 0.00 0.00 45 1015.4
20260509152211 19 127 0.0 0.0 0.00 0.00 0.00 45 1015.4
20260509151711 19 180 0.0 0.0 0.00 0.00 0.00 44 1015.4
20260509151429 19 168 0.0 0.0 0.00 0.00 0.00 44 1015.4
20260509150707 19 165 0.0 0.0 0.00 0.00 0.00 46 1015.5
20260509150207 19 111 0.0 0.0 0.00 0.00 0.00 46 1015.5
20260509145708 18 141 0.0 0.0 0.00 0.00 0.00 46 1015.6
20260509145209 18 178 0.0 0.0 0.00 0.00 0.00 45 1015.6
20260509144929 18 157 0.0 0.0 0.00 0.00 0.00 46 1015.6
20260509144207 18 172 0.0 0.0 0.00 0.00 0.00 46 1015.7
20260509143707 18 162 0.0 0.0 0.00 0.00 0.00 46 1015.7
20260509143208 19 174 0.0 0.0 0.00 0.00 0.00 45 1015.8
20260509142709 19 86 0.0 0.0 0.00 0.00 0.00 45 1015.8
20260509142425 19 84 0.0 0.0 0.00 0.00 0.00 44 1015.9
20260509141930 20 135 0.0 0.0 0.00 0.00 0.00 42 1016.0
20260509141209 20 288 0.0 0.0 0.00 0.00 0.00 42 1016.0
20260509140708 20 282 0.0 0.0 0.00 0.00 0.00 43 1016.0
20260509140208 19 210 0.0 0.0 0.00 0.00 0.00 46 1016.0
20260509135707 19 209 0.0 0.0 0.00 0.00 0.00 46 1016.1
20260509135428 19 256 0.0 0.0 0.00 0.00 0.00 48 1016.1
20260509134707 18 169 0.0 0.0 0.00 0.00 0.00 48 1016.1
20260509134209 18 145 0.0 0.0 0.00 0.00 0.00 50 1016.1
20260509133707 18 172 0.0 0.0 0.00 0.00 0.00 50 1016.3
20260509133209 18 173 0.0 0.0 0.00 0.00 0.00 48 1016.3
20260509132707 18 174 0.0 0.0 0.00 0.00 0.00 48 1016.4
20260509132209 18 182 0.0 0.0 0.00 0.00 0.00 49 1016.5
20260509131707 18 76 0.0 0.0 0.00 0.00 0.00 49 1016.5
20260509131207 18 95 0.0 0.0 0.00 0.00 0.00 48 1016.6
20260509130928 18 114 0.0 0.0 0.00 0.00 0.00 48 1016.7
20260509130207 18 117 0.0 0.0 0.00 0.00 0.00 50 1016.7
20260509125707 18 99 0.0 0.0 0.00 0.00 0.00 49 1016.8
20260509125207 18 91 0.0 0.0 0.00 0.00 0.00 48 1017.0
20260509124709 18 80 0.0 0.0 0.00 0.00 0.00 48 1017.0
20260509124207 18 41 0.0 0.0 0.00 0.00 0.00 48 1017.1
20260509123709 18 78 0.0 0.0 0.00 0.00 0.00 49 1017.2
20260509123207 17 82 0.0 0.0 0.00 0.00 0.00 49 1017.2
20260509122709 18 153 0.0 0.0 0.00 0.00 0.00 49 1017.2
20260509122207 17 118 0.0 0.0 0.00 0.00 0.00 49 1017.3
20260509121708 17 272 0.0 0.0 0.00 0.00 0.00 49 1017.4
20260509121208 17 272 0.0 0.0 0.00 0.00 0.00 48 1017.4
20260509120707 18 280 0.0 0.0 0.00 0.00 0.00 47 1017.5
20260509120427 17 185 0.0 0.0 0.00 0.00 0.00 48 1017.5
20260509115709 17 177 0.0 0.0 0.00 0.00 0.00 49 1017.5
20260509115207 17 174 0.0 0.0 0.00 0.00 0.00 49 1017.5
20260509114929 17 156 0.0 0.0 0.00 0.00 0.00 51 1017.6
20260509114208 17 238 0.0 0.0 0.00 0.00 0.00 50 1017.6
20260509113931 17 195 0.0 0.0 0.00 0.00 0.00 52 1017.6
20260509113207 17 149 0.0 0.0 0.00 0.00 0.00 51 1017.6
20260509112707 17 177 0.0 0.0 0.00 0.00 0.00 51 1017.7
20260509112208 17 157 0.0 0.0 0.00 0.00 0.00 51 1017.7
20260509111707 17 118 0.0 0.0 0.00 0.00 0.00 52 1017.8
20260509111426 17 91 0.0 0.0 0.00 0.00 0.00 52 1017.9
20260509111152 16 136 0.0 0.0 0.00 0.00 0.00 54 1018.0
20260509110207 16 118 0.0 0.0 0.00 0.00 0.00 53 1018.0
20260509105707 16 89 0.0 0.0 0.00 0.00 0.00 54 1018.0
20260509105427 16 145 0.0 0.0 0.00 0.00 0.00 54 1018.1
20260509104930 16 131 0.0 0.0 0.00 0.00 0.00 55 1018.2
20260509104207 16 124 0.0 0.0 0.00 0.00 0.00 55 1018.2
20260509103705 16 201 0.0 0.0 0.00 0.00 0.00 55 1018.3
20260509103206 16 242 0.0 0.0 0.00 0.00 0.00 56 1018.3
20260509102703 16 201 0.0 0.0 0.00 0.00 0.00 58 1018.3
20260509102201 16 199 0.0 0.0 0.00 0.00 0.00 57 1018.3
20260509101701 16 125 0.0 0.0 0.00 0.00 0.00 57 1018.3
20260509101159 16 133 0.0 0.0 0.00 0.00 0.00 58 1018.2
20260509100700 16 187 0.0 0.0 0.00 0.00 0.00 57 1018.2
20260509100156 16 180 0.0 0.0 0.00 0.00 0.00 58 1018.3
20260509095657 16 101 0.0 0.0 0.00 0.00 0.00 58 1018.3
20260509095157 16 80 0.0 0.0 0.00 0.00 0.00 58 1018.3
20260509094658 16 131 0.0 0.0 0.00 0.00 0.00 62 1018.3
20260509094159 16 143 0.0 0.0 0.00 0.00 0.00 60 1018.3
20260509093657 16 166 0.0 0.0 0.00 0.00 0.00 59 1018.3
20260509093415 16 186 0.0 0.0 0.00 0.00 0.00 58 1018.3
20260509092928 16 128 0.0 0.0 0.00 0.00 0.00 59 1018.4
20260509092157 16 268 0.0 0.0 0.00 0.00 0.00 59 1018.4
20260509091921 16 291 0.0 0.0 0.00 0.00 0.00 60 1018.4
20260509091153 16 314 0.0 0.0 0.00 0.00 0.00 60 1018.4
20260509090651 16 328 0.0 0.0 0.00 0.00 0.00 61 1018.4
20260509090151 16 337 0.0 0.0 0.00 0.00 0.00 61 1018.4
20260509085653 16 338 0.0 0.0 0.00 0.00 0.00 64 1018.4
20260509085150 16 259 0.0 0.0 0.00 0.00 0.00 64 1018.4
20260509084904 15 133 0.0 0.0 0.00 0.00 0.00 66 1018.5
20260509084143 15 183 0.0 0.0 0.00 0.00 0.00 69 1018.5
20260509083636 15 199 0.0 0.0 0.00 0.00 0.00 71 1018.6
20260509083359 15 213 0.0 0.0 0.00 0.00 0.00 72 1018.5
20260509082623 15 136 0.0 0.0 0.00 0.00 0.00 75 1018.6
20260509082116 14 126 0.0 0.0 0.00 0.00 0.00 76 1018.6
20260509081612 13 174 0.0 0.0 0.00 0.00 0.00 78 1018.7
20260509081105 13 174 0.0 0.0 0.00 0.00 0.00 79 1018.7
20260509080600 12 174 0.0 0.0 0.00 0.00 0.00 80 1018.7
20260509080105 12 185 0.0 0.0 0.00 0.00 0.00 80 1018.7
20260509075546 12 228 0.0 0.0 0.00 0.00 0.00 81 1018.8
20260509075041 12 231 0.0 0.0 0.00 0.00 0.00 81 1018.8
20260509074757 13 231 0.0 0.0 0.00 0.00 0.00 82 1018.8
20260509074029 13 5 0.0 0.0 0.00 0.00 0.00 84 1018.8
20260509073744 12 5 0.0 0.0 0.00 0.00 0.00 85 1018.9